{"data":{"norad_id":44552,"epoch":"2026-09-18T23:47:56.578848Z","epoch_age_seconds":191923,"freshness":"STALE","line1":"1 44552U 19065A   26261.99162707  .00000090  00000+0  00000+0 0  9996","line2":"2 44552  62.7124 148.1966 6509060 272.0546  20.2621  2.00578380 51104","mean_motion":2.0057838,"eccentricity":0.650906,"inclination_deg":62.7124,"raan_deg":148.1966,"arg_perigee_deg":272.0546,"mean_anomaly_deg":20.2621,"bstar":0,"rev_number":5110,"period_min":717.9238360585,"perigee_km":2893.4656925253,"apogee_km":37468.347083674,"semimajor_km":26559.0433881,"source":"CELESTRAK","updated_at":"2026-09-20T09:00:14.534751Z"}}